Change the Weather History Date:

Wednesday, April 10, 2013

  Actual Average Record
Temperature  
Mean Temperature 36 °F -  
Max Temperature 45 °F 68 °F 81 °F (1972)
Min Temperature 28 °F 29 °F 15 °F (1955)
Degree Days  
Heating Degree Days 28    
Moisture  
Dew Point 25 °F    
Average Humidity 64    
Maximum Humidity 95    
Minimum Humidity 38    
Precipitation  
Precipitation 0.00 in - - ()
Sea Level Pressure  
Sea Level Pressure 29.96 in    
Wind  
Wind Speed 7 mph (NW)    
Max Wind Speed 18 mph    
Max Gust Speed 29 mph    
Visibility 10 miles    
Events      
Averages and records for this station are not official NWS values.
T = Trace of Precipitation, MM = Missing Value Source: NWS Daily Summary

Daily Weather History Graph

Daily Weather History Graph

Search for Another Location

Airport or City:

Trip Planner

Search our weather history database for the weather conditions in past years. The results will help you decide how hot, cold, wet, or windy it might be!

Date:

Astronomy

Apr. 10, 2013 Rise Set
Actual Time 6:45 AM MDT 7:40 PM MDT
Civil Twilight 6:19 AM MDT 8:06 PM MDT
Nautical Twilight 5:49 AM MDT 8:37 PM MDT
Astronomical Twilight 5:17 AM MDT 9:08 PM MDT
Moon 6:44 AM MDT (4/10) 8:16 PM MDT (4/10)
Length of Visible Light 13h 46m
Length of Day
12h 54m
New Moon, 0% of the Moon is Illuminated
Apr 10
New Moon
Apr 18
First Quarter
Apr 25
Full
May 2
Last Quarter
May 9
New

Hourly Weather History & Observations

Time (MDT) Temp. Windchill Dew Point Humidity Pressure Visibility Wind Dir Wind Speed Gust Speed Precip Events Conditions
12:15 AM 35.8 °F - 33.1 °F 90% 29.89 in 10.0 mi Calm Calm - N/A   Overcast
12:35 AM 36.5 °F - 33.6 °F 89% 29.90 in 10.0 mi Calm Calm - N/A   Overcast
12:55 AM 36.7 °F - 32.9 °F 86% 29.90 in 10.0 mi Calm Calm - N/A   Overcast
1:15 AM 37.4 °F - 33.4 °F 86% 29.90 in 10.0 mi Calm Calm - N/A   Overcast
1:55 AM 36.5 °F 32.7 °F 33.1 °F 87% 29.91 in 10.0 mi NNW 4.6 mph - N/A   Overcast
2:15 AM 36.1 °F 29.3 °F 33.3 °F 89% 29.91 in 10.0 mi North 9.2 mph - N/A   Overcast
2:35 AM 35.6 °F 28.0 °F 33.1 °F 91% 29.91 in 10.0 mi NNW 10.4 mph 16.1 mph N/A   Overcast
2:55 AM 34.9 °F 30.8 °F 33.6 °F 95% 29.91 in 7.0 mi NNW 4.6 mph - N/A   Overcast
3:15 AM 35.4 °F 27.8 °F 32.2 °F 88% 29.91 in 10.0 mi NNW 10.4 mph - N/A   Overcast
3:35 AM 35.1 °F 26.4 °F 29.7 °F 81% 29.91 in 10.0 mi North 12.7 mph 16.1 mph N/A   Overcast
3:55 AM 34.7 °F 26.9 °F 29.3 °F 81% 29.90 in 10.0 mi North 10.4 mph - N/A   Overcast
4:15 AM 33.8 °F 26.4 °F 28.0 °F 79% 29.91 in 10.0 mi NNW 9.2 mph - N/A   Mostly Cloudy
4:35 AM 32.9 °F 26.7 °F 28.0 °F 82% 29.91 in 10.0 mi North 6.9 mph - N/A   Scattered Clouds
4:55 AM 32.5 °F 26.2 °F 27.9 °F 83% 29.91 in 10.0 mi NNW 6.9 mph - N/A   Mostly Cloudy
5:15 AM 33.1 °F 26.1 °F 26.4 °F 77% 29.92 in 10.0 mi North 8.1 mph - N/A   Overcast
5:35 AM 32.9 °F 27.5 °F 26.6 °F 78% 29.92 in 10.0 mi North 5.8 mph - N/A   Overcast
5:55 AM 32.5 °F 26.2 °F 26.6 °F 79% 29.92 in 10.0 mi North 6.9 mph - N/A   Mostly Cloudy
6:15 AM 32.0 °F 25.6 °F 27.1 °F 82% 29.93 in 10.0 mi WNW 6.9 mph - N/A   Scattered Clouds
6:35 AM 32.0 °F 26.4 °F 27.3 °F 83% 29.94 in 10.0 mi NNW 5.8 mph - N/A   Mostly Cloudy
6:55 AM 32.0 °F 25.6 °F 25.7 °F 78% 29.95 in 10.0 mi North 6.9 mph - N/A   Overcast
7:15 AM 32.0 °F 23.6 °F 25.7 °F 78% 29.96 in 10.0 mi North 10.4 mph - N/A   Overcast
7:35 AM 32.0 °F 22.5 °F 25.0 °F 75% 29.96 in 10.0 mi North 12.7 mph 17.3 mph N/A   Overcast
7:55 AM 31.8 °F 22.8 °F 23.5 °F 71% 29.98 in 10.0 mi North 11.5 mph - N/A   Overcast
8:15 AM 32.0 °F 22.5 °F 24.6 °F 74% 29.98 in 10.0 mi North 12.7 mph - N/A   Overcast
8:35 AM 32.2 °F 23.2 °F 25.3 °F 76% 29.98 in 10.0 mi North 11.5 mph - N/A   Overcast
8:55 AM 33.6 °F 25.6 °F 26.4 °F 75% 29.98 in 10.0 mi NNW 10.4 mph - N/A   Overcast
9:35 AM 34.2 °F 28.2 °F 27.0 °F 75% 29.97 in 10.0 mi North 6.9 mph - N/A   Scattered Clouds
9:55 AM 35.8 °F 30.1 °F 27.0 °F 70% 29.97 in 10.0 mi NNE 6.9 mph - N/A   Clear
10:15 AM 36.9 °F 34.3 °F 26.6 °F 66% 29.96 in 10.0 mi NNE 3.5 mph - N/A   Mostly Cloudy
10:35 AM 38.5 °F 34.1 °F 27.5 °F 65% 29.96 in 10.0 mi North 5.8 mph - N/A   Scattered Clouds
10:55 AM 39.0 °F 35.7 °F 27.7 °F 64% 29.96 in 10.0 mi SSE 4.6 mph - N/A   Mostly Cloudy
11:15 AM 39.6 °F - 27.5 °F 62% 29.96 in 10.0 mi Calm Calm - N/A   Overcast
11:35 AM 40.8 °F 38.8 °F 27.5 °F 59% 29.96 in 10.0 mi NNW 3.5 mph - N/A   Overcast
11:55 AM 43.5 °F 36.7 °F 23.7 °F 46% 29.96 in 10.0 mi West 13.8 mph 20.7 mph N/A   Overcast
12:15 PM 43.7 °F 38.6 °F 22.3 °F 43% 29.96 in 10.0 mi WNW 9.2 mph 18.4 mph N/A   Overcast
12:35 PM 45.9 °F 40.4 °F 21.7 °F 38% 29.96 in 10.0 mi WSW 11.5 mph 19.6 mph N/A   Mostly Cloudy
12:55 PM 43.7 °F 36.9 °F 21.9 °F 42% 29.96 in 10.0 mi West 13.8 mph 19.6 mph N/A   Overcast
1:15 PM 43.2 °F 35.9 °F 22.5 °F 44% 29.96 in 10.0 mi WNW 15.0 mph 26.5 mph N/A   Overcast
1:35 PM 42.3 °F 34.1 °F 22.5 °F 45% 29.96 in 10.0 mi West 17.3 mph 27.6 mph N/A   Overcast
1:55 PM 43.7 °F 35.7 °F 22.3 °F 43% 29.96 in 10.0 mi NW 18.4 mph 28.8 mph N/A   Overcast
2:15 PM 42.1 °F 33.9 °F 21.9 °F 45% 29.96 in 10.0 mi WNW 17.3 mph 24.2 mph N/A   Overcast
2:35 PM 42.1 °F 35.2 °F 22.1 °F 45% 29.96 in 10.0 mi West 12.7 mph 26.5 mph N/A   Overcast
2:55 PM 42.3 °F 34.4 °F 22.3 °F 45% 29.96 in 10.0 mi WNW 16.1 mph 20.7 mph N/A   Overcast
3:15 PM 42.3 °F 35.9 °F 21.2 °F 43% 29.96 in 10.0 mi NW 11.5 mph 23.0 mph N/A   Overcast
3:35 PM 41.4 °F 33.3 °F 21.9 °F 46% 29.96 in 10.0 mi NNW 16.1 mph 23.0 mph N/A   Overcast
3:55 PM 40.1 °F 31.6 °F 22.3 °F 49% 29.96 in 10.0 mi NW 16.1 mph 24.2 mph N/A   Overcast
4:15 PM 40.1 °F 31.0 °F 22.1 °F 49% 29.96 in 10.0 mi NW 18.4 mph 21.9 mph N/A   Overcast
4:35 PM 39.6 °F 31.0 °F 21.9 °F 49% 29.96 in 10.0 mi NW 16.1 mph - N/A   Overcast
4:55 PM 39.7 °F 31.9 °F 22.3 °F 50% 29.96 in 10.0 mi NW 13.8 mph 19.6 mph N/A   Overcast
5:15 PM 39.2 °F 30.5 °F 23.2 °F 53% 29.97 in 10.0 mi NW 16.1 mph 19.6 mph N/A   Overcast
5:35 PM 39.4 °F 30.7 °F 22.5 °F 51% 29.97 in 10.0 mi WNW 16.1 mph 20.7 mph N/A   Overcast
5:55 PM 40.1 °F 32.7 °F 22.1 °F 49% 29.97 in 10.0 mi NNW 12.7 mph 19.6 mph N/A   Overcast
6:15 PM 40.1 °F 31.6 °F 21.9 °F 48% 29.97 in 10.0 mi NW 16.1 mph 21.9 mph N/A   Overcast
6:35 PM 40.1 °F 32.4 °F 21.2 °F 47% 29.98 in 10.0 mi NW 13.8 mph 17.3 mph N/A   Overcast
6:55 PM 40.6 °F 33.4 °F 21.9 °F 47% 29.98 in 10.0 mi NW 12.7 mph - N/A   Overcast
7:15 PM 40.5 °F 34.1 °F 22.3 °F 48% 29.98 in 10.0 mi WNW 10.4 mph - N/A   Overcast
7:35 PM 39.9 °F 32.9 °F 22.5 °F 50% 29.98 in 10.0 mi NW 11.5 mph - N/A   Overcast
7:55 PM 40.1 °F 33.2 °F 22.1 °F 49% 29.98 in 10.0 mi NW 11.5 mph - N/A   Overcast
8:15 PM 38.8 °F 33.8 °F 22.5 °F 52% 29.99 in 10.0 mi WNW 6.9 mph - N/A   Overcast
8:35 PM 38.7 °F 32.9 °F 22.6 °F 53% 29.99 in 10.0 mi WNW 8.1 mph - N/A   Overcast
8:55 PM 37.6 °F 32.3 °F 23.2 °F 56% 30.00 in 10.0 mi West 6.9 mph - N/A   Overcast
9:15 PM 37.0 °F 31.0 °F 22.6 °F 56% 30.01 in 10.0 mi West 8.1 mph - N/A   Scattered Clouds
9:35 PM 35.2 °F 30.3 °F 22.1 °F 59% 30.01 in 10.0 mi West 5.8 mph - N/A   Clear
9:55 PM 35.4 °F 29.0 °F 21.9 °F 58% 30.02 in 10.0 mi West 8.1 mph - N/A   Clear
10:15 PM 36.5 °F 30.3 °F 20.7 °F 53% 30.02 in 10.0 mi WNW 8.1 mph 17.3 mph N/A   Clear
10:35 PM 32.5 °F 27.1 °F 21.2 °F 63% 30.02 in 10.0 mi NNW 5.8 mph - N/A   Clear
10:55 PM 30.4 °F 25.6 °F 21.0 °F 68% 30.02 in 10.0 mi NNW 4.6 mph - N/A   Clear
11:15 PM 28.4 °F 23.3 °F 20.5 °F 72% 30.02 in 10.0 mi WNW 4.6 mph - N/A   Clear
11:35 PM 29.5 °F 22.5 °F 20.7 °F 70% 30.02 in 10.0 mi North 6.9 mph - N/A   Clear
11:55 PM 28.8 °F 21.7 °F 20.7 °F 72% 30.02 in 10.0 mi North 6.9 mph - N/A   Clear